Regional Weather Roundup
Issued by NWS

Home | Current Version | Previous Version | Graphics & Text | Print | Product List | Glossary On
Versions: 1 2 3 4 5 6 7 8 9 10 11 12 13 14 15 16 17 18 19 20 21 22 23 24 25 26 27 28 29 30 31 32 33 34 35 36 37 38 39 40 41 42 43 44 45 46 47 48 49 50
000
ASUS43 KOAX 221902
RWRNE

WEATHER ROUNDUP FOR NEBRASKA
NATIONAL WEATHER SERVICE OMAHA NE
100 PM CST THU FEB 22 2018

NOTES: SATELLITE DATA IS BEING USED TO AUGMENT CLOUD COVER ABOVE
       12000 FEET.
       "FAIR" INDICATES FEW OR NO CLOUDS BELOW 12,000 FEET WITH NO
       SIGNIFICANT WEATHER AND/OR OBSTRUCTIONS TO VISIBILITY.


NEZ001>004-019>022-054>056-222000-
NEBRASKA PANHANDLE

CITY           SKY/WX    TMP DP  RH WIND       PRES   REMARKS
SCOTTSBLUFF    CLOUDY    22  19  89 SE8       30.03F FOG     WCI  12
ALLIANCE       LGT SNOW  20  16  84 S10       30.03F FOG     WCI   9
CHADRON        CLOUDY    21  12  68 CALM      30.07F
GORDON         FLURRIES  22  17  79 SW7       30.07F WCI  14
KIMBALL        LGT SNOW  20  15  79 S5        29.98F WCI  14
SIDNEY         LGT SNOW  20  15  81 S6        30.00F VSB 1   WCI  12
$$

NEZ057>060-069>072-079>082-222000-
SOUTHWEST NEBRASKA

CITY           SKY/WX    TMP DP  RH WIND       PRES   REMARKS
NORTH PLATTE   CLOUDY    22  16  78 E3        30.12F
IMPERIAL       CLOUDY    23  14  68 E3        30.08F
LEXINGTON      LGT SNOW  25  21  85 E8        30.15F WCI  16
MCCOOK         LGT SNOW  23  20  88 SE5       30.16R FOG     WCI  17
OGALLALA       CLOUDY    22  16  78 CALM      30.09F
$$

NEZ005>010-023>029-035>040-094-222000-
NORTH CENTRAL NEBRASKA

CITY           SKY/WX    TMP DP  RH WIND       PRES   REMARKS
VALENTINE      CLOUDY    24  18  77 S7        30.16F WCI  16
AINSWORTH      LGT SNOW  21  19  91 SE8       30.17F WCI  12
BROKEN BOW     LGT SNOW  23  18  81 E5        30.15F WCI  17
O`NEILL        LGT SNOW  23  21  90 SE3       30.23F VSB 1
ORD            CLOUDY    23  18  81 E3        30.20F
THEDFORD       CLOUDY    22  19  86 SE5       30.14F WCI  16
$$

NEZ041-046>049-061>064-073>077-083>087-222000-
SOUTH CENTRAL NEBRASKA

CITY           SKY/WX    TMP DP  RH WIND       PRES   REMARKS
GRAND ISLAND   CLOUDY    24  19  81 SE7       30.24F WCI  16
AURORA         CLOUDY    24  21  88 SE5       30.25F WCI  19
HEBRON         CLOUDY    28  26  91 SE6       30.28F WCI  21
HOLDREGE       CLOUDY    25  21  86 SE9       30.18F WCI  15
KEARNEY        FLURRIES  25  20  81 E7        30.20F WCI  17
YORK           CLOUDY    25  25 100 SE8       30.27F WCI  16
$$

NEZ011>018-030>034-042>045-222000-
NORTHEAST NEBRASKA

CITY           SKY/WX    TMP DP  RH WIND       PRES   REMARKS
NORFOLK        CLOUDY    24  20  84 SE6       30.26F WCI  17
ALBION         CLOUDY    24  20  85 CALM      30.25F
BLAIR          CLOUDY    28  25  87 E6        30.30S WCI  22
COLUMBUS       CLOUDY    26  22  84 SE6       30.29F WCI  19
FREMONT        CLOUDY    27  23  87 SE8       30.31F WCI  18
TEKAMAH        CLOUDY    27  23  85 SE10      30.33F WCI  17
WAYNE          CLOUDY    26  25  96 SE8       30.29F WCI  17
$$

NEZ050>053-065>068-078-088>093-222000-
SOUTHEAST NEBRASKA

CITY           SKY/WX    TMP DP  RH WIND       PRES   REMARKS
OMAHA EPPLEY   FRZ DRZL  28  24  85 SE10      30.33F WCI  19
BEATRICE       CLOUDY    30  28  92 SE8       30.30S WCI  22
FALLS CITY     CLOUDY    29  28  96 E9        30.32F FOG     WCI  20
NEBRASKA CITY  CLOUDY    30  30 100 SE9       30.33R FOG     WCI  21
PLATTSMOUTH    CLOUDY    28  27  93 SE8       30.31F FOG     WCI  20
$$

NEZ044-045-051>053-067-222000-
OMAHA AREA

CITY           SKY/WX    TMP DP  RH WIND       PRES   REMARKS
OMAHA EPPLEY   FRZ DRZL  28  24  85 SE10      30.33F WCI  19
BLAIR          CLOUDY    28  25  87 E6        30.30S WCI  22
FREMONT        CLOUDY    27  23  87 SE8       30.31F WCI  18
MILLARD        CLOUDY    29  25  85 E5        30.32F WCI  24
OFFUTT AFB     CLOUDY    29  25  85 SE10      30.32F WCI  20
PLATTSMOUTH    CLOUDY    28  27  93 SE8       30.31F FOG     WCI  20
WAHOO          CLOUDY    27  24  89 SE6       30.31F WCI  20
$$



USA.gov is the U.S. government's official web portal to all federal, state and local government web resources and services.